User: anonymous   Login
Location: Unspecified
(0.0000°N, 0.0000°E)
Time: 05:31:11
(UTC+00:00)
Language:

Himawari - Orbit

View from above orbital plane
View from above orbital plane
View from above satellite
View from above satellite

Ground track
Ground track

The orbit data is extracted from the following two-line orbital elements,

1 10143U 77065A   17177.31646558 -.00000219 +00000-0 +00000-0 0  9998
2 10143 013.4121 327.1343 0016962 159.1940 200.5337 00.99249366088687
Epoch (UTC): 26 June 2017 07:35:42
Eccentricity: 0.0016962
inclination: 13.4121°
perigee height: 36003 km
apogee height: 36147 km
right ascension of ascending node: 327.1343°
argument of perigee: 159.1940°
revolutions per day: 0.99249366
mean anomaly at epoch: 200.5337°
orbit number at epoch: 8868

The dashed part of the orbit path shows where the satellite is in the earth's shadow,  

DLR